Regional Weather Roundup
Issued by NWS Mt. Holly, NJ

Home | Current Version | Previous Version | Text Only | Print | Product List | Glossary On
Versions: 1 2 3 4 5 6 7 8 9 10 11 12 13 14 15 16 17 18 19 20 21 22 23 24 25 26 27 28 29 30 31 32 33 34 35 36 37 38 39 40 41 42 43 44 45 46 47 48 49 50
239
ASUS41 KPHI 240412
RWRPHI

REGIONAL WEATHER ROUNDUP
NATIONAL WEATHER SERVICE MOUNT HOLLY NJ
1200 AM EDT SUN JUL 24 2016

NOTE:  "FAIR" INDICATES FEW OR NO CLOUDS BELOW 12,000 FEET WITH NO
SIGNIFICANT WEATHER AND/OR OBSTRUCTIONS TO VISIBILITY.

 * = STATION DOES NOT REPORT PRECIPITATION (E.G. RAIN, SNOW, ETC.)
        OR FOG.

NJZ015>026-240500-
SOUTHERN NEW JERSEY

CITY           SKY/WX    TMP DP  RH WIND       PRES   REMARKS
POMONA         CLEAR     75  69  81 SW5       29.90S
WILDWOOD*      CLEAR     78  70  76 S5        29.91R
MILLVILLE      CLEAR     74  72  93 CALM      29.91R FOG
WRIGHTSTOWN    CLEAR     74  70  88 W2        29.89R
MOUNT HOLLY    CLEAR     72  71  97 CALM      29.91R
TRENTON        CLEAR     77  67  71 NW6       29.91R

$$
NJZ001>014-240500-
NORTHERN NEW JERSEY

CITY           SKY/WX    TMP DP  RH WIND       PRES   REMARKS
SUSSEX         CLEAR     67  61  81 CALM      29.93R
ANDOVER*         N/A     68  60  75 CALM      29.94R
MORRISTOWN     CLEAR     68  59  73 CALM      29.91R
NEWARK         PTCLDY    85  55  35 NW6       29.89R
TETERBORO      CLEAR     84  53  34 CALM      29.88R
CALDWELL       CLEAR     76  59  55 CALM      29.91R
SOMERVILLE     CLEAR     70  65  84 CALM      29.90R
ALLAIRE*       CLEAR     76  69  79 W6        29.92R
TOMS RIVER*    CLEAR     73  70  88 NW5       29.91R

$$
PAZ043-044-047-054-055-060>062-066>071-240500-
EASTERN PENNSYLVANIA

CITY           SKY/WX    TMP DP  RH WIND       PRES   REMARKS
PHILADELPHIA   PTCLDY    79  71  76 SW8       29.92R
NORTH PHILA    CLEAR     77  69  76 NE3       29.92R
BLUE BELL*     CLEAR     68  68 100 CALM      29.92R
DOYLESTOWN     CLEAR     74  66  76 NE3       29.93R
QUAKERTOWN*    CLEAR     73  66  78 CALM      29.95R
PERKASIE*      FAIR      72  64  78 CALM      29.95R
POTTSTOWN      CLEAR     73  68  84 CALM      29.95R
LANCASTER      PTCLDY    70  69  97 CALM      29.94R
COATESVILLE    CLEAR     77  70  78 NW7       29.96R
READING        CLEAR     75  67  76 NW5       29.93R
ALLENTOWN      CLEAR     73  59  61 N3        29.94R
MOUNT POCONO   CLEAR     70  32  24 NW5       30.01R
HAZLETON       CLEAR     68  54  60 CALM      30.04R
LEHIGHTON      FAIR      64  63  94 CALM      29.96R
WILKES BARRE   CLEAR     72  57  59 E5        29.97R

$$
DEZALL-MDZ008-012-015-019-020-240500-
DELAWARE AND EASTERN MARYLAND

CITY           SKY/WX    TMP DP  RH WIND       PRES   REMARKS
WILMINGTON     CLEAR     75  68  78 NW3       29.92R
DOVER          CLEAR     78  78 100 S6        29.89S
GEORGETOWN     PTCLDY    80  75  84 SW3       29.92R
EASTON         CLOUDY    78  78 100 CALM      29.95S
PATUXENT       CLEAR     85  74  69 SW9       29.92R HX  92
OCEAN CITY     PTCLDY    83  76  79 SW6       29.92R HX  91
WALLOPS ISLAND FAIR      83  76  79 SW8       29.93S HX  91
CAMBRIDGE      PTCLDY    79  75  89 CALM      29.92R
SALISBURY      CLEAR     81  78  91 SW3       29.92R

$$
PAZ001-021-NYZ056-072-MDZ011-DCZ001-240500-
OTHER NEARBY LOCATIONS

CITY           SKY/WX    TMP DP  RH WIND       PRES   REMARKS
HARRISBURG     PTCLDY    78  73  84 CALM      29.94R
STATE COLLEGE  CLOUDY    77  55  46 NW5       30.01R
WILLIAMSPORT   CLEAR     71  58  63 CALM      29.96R
BINGHAMTON     CLEAR     73  55  53 NW6       30.00R
NEW YORK CITY  CLEAR     85  55  35 VRB5      29.92R
BALTIMORE      PTCLDY    74  72  93 W5        29.92R
WASHINGTON DC  MOCLDY    86  75  69 SE3       29.92S HX  95

$$




USA.gov is the U.S. government's official web portal to all federal, state and local government web resources and services.